Weather History for KTHV - January, 2013

Change the Weather History Date:

Friday, January 25, 2013

  Actual Average Record
Temperature  
Mean Temperature 10 °F -  
Max Temperature 19 °F 0 °F 48 °F (2002)
Min Temperature 1 °F - -9 °F (2004)
Degree Days  
Heating Degree Days 55    
Moisture  
Dew Point 8 °F    
Average Humidity 73    
Maximum Humidity 92    
Minimum Humidity 42    
Precipitation  
Precipitation 0.07 in - - ()
Sea Level Pressure  
Sea Level Pressure 30.24 in    
Wind  
Wind Speed 3 mph (SSE)    
Max Wind Speed 9 mph    
Max Gust Speed -    
Visibility 5 miles    
Events Fog , Snow    
Averages and records for this station are not official NWS values.
T = Trace of Precipitation, MM = Missing Value Source: NWS Daily Summary

Daily Weather History Graph

Daily Weather History Graph

Search for Another Location

Airport or City:

Trip Planner

Search our weather history database for the weather conditions in past years. The results will help you decide how hot, cold, wet, or windy it might be!

Date:

Astronomy

Jan. 25, 2013 Rise Set
Actual Time 7:21 AM EST 5:18 PM EST
Civil Twilight 6:52 AM EST 5:47 PM EST
Nautical Twilight 6:19 AM EST 6:20 PM EST
Astronomical Twilight 5:47 AM EST 6:52 PM EST
Moon 4:13 PM EST (1/25) 5:59 AM EST (1/25)
Length of Visible Light 10h 55m
Length of Day
9h 57m
Waxing Gibbous, 98% of the Moon is Illuminated
Jan 25
Waxing Gibbous
Jan 26
Full
Feb 3
Last Quarter
Feb 10
New
Feb 17
First Quarter

Hourly Weather History & Observations

Time (EST) Temp. Windchill Dew Point Humidity Pressure Visibility Wind Dir Wind Speed Gust Speed Precip Events Conditions
12:53 AM 12.9 °F 3.8 °F 1.0 °F 59% 30.51 in 10.0 mi NW 5.8 mph - N/A   Clear
1:53 AM 12.0 °F - -0.0 °F 59% 30.50 in 10.0 mi Calm Calm - N/A   Clear
2:53 AM 10.0 °F - -0.0 °F 64% 30.50 in 10.0 mi Calm Calm - N/A   Clear
3:53 AM 10.0 °F - 3.0 °F 73% 30.50 in 10.0 mi Calm Calm - N/A   Clear
4:53 AM 12.0 °F 4.1 °F 5.0 °F 73% 30.47 in 10.0 mi NW 4.6 mph - N/A   Clear
5:53 AM 14.0 °F - 3.0 °F 62% 30.47 in 10.0 mi Calm Calm - N/A   Clear
6:53 AM 14.0 °F - 3.0 °F 62% 30.46 in 10.0 mi Calm Calm - N/A   Clear
7:53 AM 15.1 °F - 1.9 °F 56% 30.45 in 10.0 mi Calm Calm - N/A   Clear
8:53 AM 16.0 °F - 1.0 °F 52% 30.44 in 10.0 mi Calm Calm - N/A   Overcast
9:53 AM 16.0 °F 10.4 °F -0.9 °F 47% 30.40 in 10.0 mi SE 3.5 mph - N/A   Overcast
10:53 AM 17.1 °F 10.0 °F -0.9 °F 45% 30.39 in 10.0 mi ESE 4.6 mph - N/A   Overcast
11:53 AM 19.0 °F 13.9 °F -0.9 °F 42% 30.36 in 10.0 mi Variable 3.5 mph - N/A   Overcast
12:53 PM 19.9 °F 12.1 °F 5.0 °F 52% 30.28 in 7.0 mi South 5.8 mph - 0.00 in Snow Light Snow
1:06 PM 19.4 °F 14.3 °F 6.8 °F 58% 30.23 in 2.5 mi Variable 3.5 mph - 0.00 in Snow Light Snow
1:11 PM 17.6 °F 6.4 °F 8.6 °F 68% 30.23 in 1.0 mi SSE 9.2 mph - 0.00 in Snow Light Snow
1:19 PM 17.6 °F 8.2 °F 10.4 °F 73% 30.22 in 0.8 mi Variable 6.9 mph - 0.00 in Snow Light Snow
1:29 PM 17.6 °F 10.7 °F 12.2 °F 79% 30.21 in 0.5 mi SSE 4.6 mph - 0.00 in Snow Snow
1:53 PM 18.0 °F 9.8 °F 12.9 °F 81% 30.23 in 0.8 mi South 5.8 mph - 0.01 in Snow Light Snow
2:03 PM 17.6 °F - 12.2 °F 79% 30.20 in 0.8 mi Calm Calm - 0.00 in Snow Light Snow
2:30 PM 17.6 °F 12.3 °F 12.2 °F 79% 30.19 in 1.2 mi South 3.5 mph - 0.01 in Snow Light Snow
2:34 PM 19.4 °F - 12.2 °F 74% 30.19 in 2.5 mi Calm Calm - 0.01 in Snow Light Snow
2:43 PM 17.6 °F 10.7 °F 12.2 °F 79% 30.17 in 1.5 mi SE 4.6 mph - 0.01 in Snow Light Snow
2:47 PM 17.6 °F 9.3 °F 12.2 °F 79% 30.17 in 0.8 mi SSE 5.8 mph - 0.01 in Snow Light Snow
2:53 PM 18.0 °F 8.7 °F 12.9 °F 81% 30.20 in 0.8 mi SSE 6.9 mph - 0.01 in Snow Light Snow
3:08 PM 17.6 °F 9.3 °F 14.0 °F 86% 30.16 in 0.2 mi SSE 5.8 mph - 0.01 in Fog , Snow Snow
3:32 PM 17.6 °F 6.4 °F 12.2 °F 79% 30.15 in 0.2 mi SSE 9.2 mph - 0.01 in Snow Heavy Snow
3:41 PM 17.6 °F 12.3 °F 12.2 °F 79% 30.15 in 0.5 mi Variable 3.5 mph - 0.01 in Snow Snow
3:53 PM 18.0 °F 12.7 °F 12.9 °F 81% 30.18 in 0.5 mi Variable 3.5 mph - 0.01 in Snow Snow
4:53 PM 17.1 °F 10.0 °F 12.9 °F 84% 30.16 in 0.5 mi SSE 4.6 mph - 0.03 in Fog , Snow Snow
5:09 PM 17.6 °F 8.2 °F 12.2 °F 79% 30.12 in 1.0 mi SSE 6.9 mph - 0.00 in Snow Light Snow
5:19 PM 17.6 °F 12.3 °F 12.2 °F 79% 30.11 in 1.2 mi Variable 3.5 mph - 0.00 in Snow Light Snow
5:37 PM 17.6 °F 10.7 °F 12.2 °F 79% 30.11 in 2.5 mi SSE 4.6 mph - 0.00 in Snow Light Snow
5:53 PM 17.1 °F 11.7 °F 12.0 °F 81% 30.14 in 2.0 mi SSE 3.5 mph - 0.00 in Snow Light Snow
6:10 PM 17.6 °F - 12.2 °F 79% 30.10 in 2.5 mi Calm Calm - 0.00 in Snow Light Snow
6:13 PM 17.6 °F - 12.2 °F 79% 30.10 in 3.0 mi Calm Calm - 0.01 in Snow Light Snow
6:53 PM 14.0 °F - 10.9 °F 88% 30.13 in 4.0 mi Calm Calm - 0.01 in Snow Light Snow
7:53 PM 3.9 °F - 1.0 °F 88% 30.12 in 7.0 mi Calm Calm - 0.00 in   Partly Cloudy
8:21 PM 1.4 °F - -0.4 °F 92% 30.07 in 9.0 mi Calm Calm - N/A   Mostly Cloudy
8:53 PM 1.0 °F - -2.9 °F 83% 30.10 in 10.0 mi Calm Calm - N/A   Overcast
9:53 PM 10.0 °F - 6.1 °F 84% 30.09 in 10.0 mi Calm Calm - N/A   Overcast
10:53 PM 12.9 °F - 9.0 °F 84% 30.09 in 5.0 mi Calm Calm - N/A   Overcast
11:31 PM 12.2 °F - 8.6 °F 85% 30.06 in 6.0 mi Calm Calm - N/A   Overcast
11:53 PM 12.0 °F - 9.0 °F 88% 30.11 in 8.0 mi Calm Calm - N/A   Overcast